STARLINK-3282, 50177

Orbit data source: Space-Track

STARLINK-3282, 50177 is a payload satellite owned by SpaceX/Seattle (US) in LEO that was launched on Sat, 18 Dec 2021 UTC via an FALCON 9 launch vehicle from the Air Force Western Test Range (AFWTR). Payload-class satellites include a variety of spacecraft equipped with specific instruments for various scientific and technological missions. These include communications satellites like Starlink; space stations such as the ISS; scientific satellites like the Hubble; Earth observation satellites from companies like Planet Labs, Umbra, and HawkEye 360; GPS; miniature CubeSats for education and research; and military/defense satellites.

Loading next visibility...
Identifier
50177, 2021-125X
Orbit
LEO
Country
Flag of USUS
Related business
Manufacturer
SpaceX/Seattle
Mission
Operational Commercial Communications
Bus & Motor
STARLINK, Unknown motor
Mass
290 kg wet, ~270 kg dry
Launch date (UTC)
2021-12-18 (5 years ago)
Launch vehicle
FALCON 9
Launch site
Air Force Western Test Range (AFWTR)
Object type
Payload
Rocket body
Debris
Shape & HBR
Box + 1 Pan, 10.1 m
Radar Cross Section
13.562 m², Large (>1 m²)

Expand to show TLE details & history
Last TLE update: 4 hours ago

TLE from 4 hours ago
0 STARLINK-3282
1 50177U 21125X   26170.16668980  .00012410  00000-0  62419-3 0  9994
2 50177  53.1609 153.3052 0000465  60.8924 316.6201 15.17608238  5835
Epoch: 2026-06-19T04:00Z
TLE epoch observation values (Epoch: 2026-06-19T04:00:01.998Z)
Latitude
13.93924°
Longitude
-163.44624°
Altitude
512.991 km
Speed
7.61 km/s
True Right ascension
10h 55m 50s
True Declination
13° 51' 22"
Sunlit
Object was in daylight at epoch
Visualization orbit readout
Latitude
Unknown
Longitude
Unknown
Altitude
Unknown
Speed
Unknown
Apparent Right ascension
Unknown
Apparent Declination
Unknown
Sunlit
N/A
Visualization observer readout
Local Sidereal Time
18:38:48
Azimuth
Unknown
Elevation
Unknown
Doppler factor
Unknown
Orbital elements
Apogee altitude
513.647 km
Perigee altitude
513.006 km
Semi-major axis
6,891.463 km
Eccentricity
0.00005
Inclination
53.1609°
RAAN
153.3052°
Arg. of periapsis
60.8924°
True anomaly
316.61644°
Mean anomaly
316.6201°
Eccentric anomaly
316.61827°
Mean motion
3.79381 °/min
Orbital period
94.89 mins
BSTAR
0.00062419
Loading maneuver chart data...
Computing Atmospheric mass density...
Loading historical data...
Loading historical data...
Loading historical data...
Loading historical data...
Loading historical data...
Loading historical data...
Loading historical data...

Documentation

Showing up to 5 results
|